TimeMDT,TemperatureF,Dew PointF,Humidity,Sea Level PressureIn,VisibilityMPH,Wind Direction,Wind SpeedMPH,Gust SpeedMPH,PrecipitationIn,Events,Conditions,WindDirDegrees,DateUTC
12:53 AM,34.0,23.0,64,30.21,10.0,SW,5.8,-,N/A,,Overcast,220,2013-03-11 06:53:00
1:53 AM,34.0,21.9,61,30.21,10.0,SSW,10.4,-,N/A,,Overcast,210,2013-03-11 07:53:00
2:53 AM,33.1,21.9,64,30.19,10.0,SSW,16.1,-,N/A,,Overcast,200,2013-03-11 08:53:00
3:53 AM,32.0,24.1,73,30.20,10.0,SW,5.8,-,N/A,,Overcast,220,2013-03-11 09:53:00
4:53 AM,32.0,23.0,69,30.18,10.0,SSW,5.8,-,N/A,,Overcast,210,2013-03-11 10:53:00
5:53 AM,30.9,23.0,72,30.17,10.0,SSW,6.9,-,N/A,,Overcast,200,2013-03-11 11:53:00
6:53 AM,30.9,24.1,76,30.19,10.0,Calm,Calm,-,N/A,,Overcast,0,2013-03-11 12:53:00
7:53 AM,30.9,24.1,76,30.19,10.0,SW,4.6,-,N/A,,Overcast,220,2013-03-11 13:53:00
8:53 AM,32.0,24.1,73,30.21,10.0,Calm,Calm,-,N/A,,Overcast,0,2013-03-11 14:53:00
9:53 AM,33.1,25.0,72,30.22,10.0,West,3.5,-,N/A,,Overcast,260,2013-03-11 15:53:00
10:53 AM,34.0,25.0,70,30.23,10.0,South,4.6,-,N/A,,Overcast,180,2013-03-11 16:53:00
11:53 AM,36.0,25.0,64,30.22,-9999.0,SSW,9.2,-,N/A,,Unknown,200,2013-03-11 17:53:00
12:53 PM,37.0,27.0,67,30.21,10.0,SW,9.2,-,N/A,,Clear,220,2013-03-11 18:53:00
1:53 PM,39.0,28.0,65,30.18,10.0,SSW,11.5,-,N/A,,Mostly Cloudy,210,2013-03-11 19:53:00
2:53 PM,39.9,28.9,65,30.16,10.0,SW,11.5,-,N/A,,Clear,230,2013-03-11 20:53:00
3:53 PM,42.1,28.9,60,30.15,10.0,SW,9.2,-,N/A,,Clear,220,2013-03-11 21:53:00
5:53 PM,44.1,23.0,43,30.14,10.0,SW,4.6,-,N/A,,Clear,220,2013-03-11 23:53:00
6:53 PM,42.1,27.0,55,30.14,10.0,East,5.8,-,N/A,,Partly Cloudy,100,2013-03-12 00:53:00
7:53 PM,37.0,27.0,67,30.17,10.0,NE,3.5,-,N/A,,Clear,40,2013-03-12 01:53:00
8:53 PM,35.1,25.0,67,30.19,10.0,Calm,Calm,-,N/A,,Clear,0,2013-03-12 02:53:00
9:53 PM,32.0,23.0,69,30.21,10.0,Calm,Calm,-,N/A,,Clear,0,2013-03-12 03:53:00
10:53 PM,32.0,23.0,69,30.22,10.0,Calm,Calm,-,N/A,,Clear,0,2013-03-12 04:53:00
11:53 PM,28.9,21.9,75,30.24,10.0,Calm,Calm,-,N/A,,Clear,0,2013-03-12 05:53:00